Back to catalog

CSTP-1.1

AliveScienceSSO
NORAD 57202·PAYLOAD·🇷🇺 Russia
This satellite name has not been confirmed by official sources yet.

Launched Jun 27, 2023 from Vostochny Cosmodrome

Loading…

Next Passes (next 24 hours)

TLE

FreshSource: Space-Track

Epoch: Sep 14, 2026, 12:08 UTC

1 57202U 23091AN  26257.50577551  .00004040  00000-0  19162-3 0  9998
2 57202  97.5020 315.8151 0010096 149.9919 210.1897 15.19814943177528

Track CSTP-1.1 in real time with AllMySat

Download on the App Store